Gary, IN

8:17 AM CDT on September 28, 2016 (GMT -0500)
Gary / Chicago

Weather History for KGYY - October, 2013

Change the Weather History Date:

Wednesday, October 9, 2013

  Actual Average Record
Temperature  
Mean Temperature 57 °F -  
Max Temperature 70 °F 64 °F 88 °F (1949)
Min Temperature 45 °F 44 °F 33 °F (2000)
Degree Days  
Heating Degree Days 8    
Growing Degree Days 7 (Base 50)    
Moisture  
Dew Point 46 °F    
Average Humidity 75    
Maximum Humidity 94    
Minimum Humidity 35    
Precipitation  
Precipitation 0.00 in - - ()
Sea Level Pressure  
Sea Level Pressure 30.20 in    
Wind  
Wind Speed 3 mph (SE)    
Max Wind Speed 10 mph    
Max Gust Speed -    
Visibility 12 miles    
Events      
Averages and records for this station are not official NWS values.
T = Trace of Precipitation, MM = Missing Value Source: NWS Daily Summary

Daily Weather History Graph

Daily Weather History Graph

Search for Another Location

Airport or City:

Trip Planner

Search our weather history database for the weather conditions in past years. The results will help you decide how hot, cold, wet, or windy it might be!

Date:

Astronomy

Oct. 09, 2013 Rise Set
Actual Time 6:55 AM CDT 6:17 PM CDT
Civil Twilight 6:27 AM CDT 6:45 PM CDT
Nautical Twilight 5:55 AM CDT 7:17 PM CDT
Astronomical Twilight 5:23 AM CDT 7:49 PM CDT
Moon 11:53 AM CDT (10/9) 9:48 PM CDT (10/9)
Length of Visible Light 12h 17m
Length of Day
11h 22m
Waxing Crescent, 25% of the Moon is Illuminated
Oct 9
Waxing Crescent
Oct 11
First Quarter
Oct 18
Full
Oct 26
Last Quarter
Nov 3
New

Hourly Weather History & Observations

Time (CDT) Temp. Dew Point Humidity Pressure Visibility Wind Dir Wind Speed Gust Speed Precip Events Conditions
12:15 AM 56.7 °F 47.8 °F 72% 30.19 in 10.0 mi SSE 3.5 mph - N/A   Clear
12:35 AM 56.7 °F 48.0 °F 73% 30.19 in 10.0 mi SSE 4.6 mph - N/A   Clear
12:55 AM 56.3 °F 47.7 °F 73% 30.19 in 10.0 mi SSE 4.6 mph - N/A   Clear
1:15 AM 57.2 °F 47.3 °F 69% 30.19 in 10.0 mi SSE 6.9 mph - N/A   Clear
1:35 AM 57.9 °F 46.4 °F 65% 30.20 in 10.0 mi SSE 5.8 mph - N/A   Clear
1:55 AM 56.8 °F 46.0 °F 67% 30.20 in 10.0 mi SSE 4.6 mph - N/A   Clear
2:15 AM 57.2 °F 45.5 °F 65% 30.20 in 10.0 mi SSE 4.6 mph - N/A   Clear
2:35 AM 56.3 °F 45.5 °F 67% 30.20 in 10.0 mi SSE 3.5 mph - N/A   Clear
2:55 AM 52.3 °F 45.3 °F 77% 30.20 in 10.0 mi Calm Calm - N/A   Clear
3:15 AM 48.4 °F 44.6 °F 87% 30.21 in 10.0 mi Calm Calm - N/A   Clear
3:35 AM 48.4 °F 44.8 °F 87% 30.21 in 10.0 mi Calm Calm - N/A   Clear
3:55 AM 45.7 °F 42.8 °F 90% 30.21 in 10.0 mi Calm Calm - N/A   Clear
4:15 AM 45.9 °F 43.3 °F 91% 30.22 in 10.0 mi Calm Calm - N/A   Clear
4:35 AM 45.3 °F 43.2 °F 92% 30.23 in 10.0 mi Calm Calm - N/A   Clear
4:45 AM 46.4 °F 44.6 °F 93% 30.23 in 10.0 mi Calm Calm - N/A   Clear
5:45 AM 48.2 °F 46.4 °F 93% 30.24 in 10.0 mi Calm Calm - N/A   Clear
6:45 AM 50.0 °F 44.6 °F 82% 30.25 in 20.0 mi SE 8.1 mph - N/A   Clear
7:45 AM 51.8 °F 44.6 °F 76% 30.26 in 20.0 mi SE 8.1 mph - N/A   Clear
8:45 AM 57.2 °F 46.4 °F 67% 30.26 in 20.0 mi SSE 8.1 mph - N/A   Clear
9:45 AM 62.6 °F 46.4 °F 55% 30.27 in 20.0 mi ESE 8.1 mph - N/A   Clear
10:45 AM 66.2 °F 44.6 °F 46% 30.26 in 20.0 mi SE 5.8 mph - N/A   Clear
11:45 AM 68.0 °F 42.8 °F 40% 30.25 in 20.0 mi Calm Calm - N/A   Clear
12:45 PM 69.8 °F 41.0 °F 35% 30.23 in 20.0 mi ESE 3.5 mph - N/A   Clear
1:45 PM 69.8 °F 46.4 °F 43% 30.21 in 20.0 mi Variable 6.9 mph - N/A   Clear
2:45 PM 68.0 °F 46.4 °F 46% 30.20 in 20.0 mi NE 10.4 mph - N/A   Partly Cloudy
3:45 PM 68.0 °F 50.0 °F 52% 30.19 in 20.0 mi NNE 9.2 mph - N/A   Partly Cloudy
4:45 PM 66.2 °F 50.0 °F 56% 30.18 in 20.0 mi NE 9.2 mph - N/A   Partly Cloudy
6:45 PM 62.6 °F 53.6 °F 72% 30.16 in 15.0 mi ENE 5.8 mph - N/A   Partly Cloudy
7:45 PM 55.4 °F 51.8 °F 88% 30.17 in 15.0 mi Calm Calm - N/A   Partly Cloudy
8:45 PM 50.0 °F 48.2 °F 94% 30.17 in 15.0 mi Calm Calm - N/A   Clear
9:15 PM 51.3 °F 49.1 °F 92% 30.17 in 4.0 mi Calm Calm - N/A   Clear
9:35 PM 49.8 °F 47.3 °F 91% 30.17 in 4.0 mi Calm Calm - N/A   Clear
9:45 PM 50.0 °F 46.4 °F 87% 30.17 in 15.0 mi Calm Calm - N/A   Clear
9:55 PM 49.6 °F 46.9 °F 90% 30.17 in 1.0 mi Calm Calm - N/A   Mist
10:15 PM 48.7 °F 46.4 °F 92% 30.18 in 5.0 mi Calm Calm - N/A   Clear
10:35 PM 47.5 °F 45.3 °F 92% 30.18 in 1.2 mi Calm Calm - N/A   Mist
10:55 PM 47.8 °F 45.7 °F 92% 30.17 in 5.0 mi Calm Calm - N/A   Clear
11:15 PM 49.1 °F 46.9 °F 92% 30.17 in 3.0 mi Calm Calm - N/A   Clear
11:55 PM 47.8 °F 45.7 °F 92% 30.17 in 4.0 mi Calm Calm - N/A   Clear